ProjectID,Date,Electric Generation,Electric Utility Import,Facility Electric Load
,YYYY-MM-DD,kW,kW,kW
123,2013-06-01,0.0,,0.0
123,2013-06-02,0.0,,0.0
123,2013-06-03,0.0,,0.0
123,2013-06-04,0.0,,0.0
123,2013-06-05,0.0,,0.0
123,2013-06-06,0.0,,0.0
123,2013-06-07,0.0,,0.0
123,2013-06-08,0.0,,0.0
123,2013-06-09,0.0,,0.0
123,2013-06-10,0.0,,0.0
123,2013-06-11,0.0,,0.0
123,2013-06-12,0.0,,0.0
123,2013-06-13,0.0,,0.0
123,2013-06-14,0.0,,0.0
123,2013-06-15,0.0,,0.0
123,2013-06-16,0.0,,0.0
123,2013-06-17,0.0,,0.0
123,2013-06-18,5.887499999999998,,5.887499999999998
123,2013-06-19,70.38083333333334,,70.38083333333334
123,2013-06-20,63.717083333333335,,63.717083333333335
123,2013-06-21,66.86625000000001,,66.86625000000001
123,2013-06-22,12.962083333333334,,12.962083333333334
123,2013-06-23,0.0,,0.0
123,2013-06-24,0.0,,0.0
123,2013-06-25,0.0,,0.0
123,2013-06-26,0.0,,0.0
123,2013-06-27,0.0,,0.0
123,2013-06-28,0.0,,0.0
123,2013-06-29,0.0,,0.0
123,2013-06-30,0.0,,0.0
123,2013-07-01,18.777083333333337,,18.777083333333337
123,2013-07-02,33.36041666666667,,33.36041666666667
123,2013-07-03,46.70375000000001,,46.70375000000001
123,2013-07-04,56.182958333333346,,56.182958333333346
123,2013-07-05,62.783791666666666,,62.783791666666666
123,2013-07-06,58.05037499999998,,58.05037499999998
123,2013-07-07,62.90837500000001,,62.90837500000001
123,2013-07-08,59.760416666666664,,59.760416666666664
123,2013-07-09,55.197541666666666,,55.197541666666666
123,2013-07-10,43.58916666666667,,43.58916666666667
123,2013-07-11,38.53791666666667,,38.53791666666667
123,2013-07-12,35.26366666666667,,35.26366666666667
123,2013-07-13,27.58370833333333,,27.58370833333333
123,2013-07-14,52.52741666666665,,52.52741666666665
123,2013-07-15,62.252125,,62.252125
123,2013-07-16,62.747375,,62.747375
123,2013-07-17,62.53583333333333,,62.53583333333333
123,2013-07-18,60.74170833333334,,60.74170833333334
123,2013-07-19,56.44825,,56.44825
123,2013-07-20,49.07245833333334,,49.07245833333334
123,2013-07-21,53.917958333333324,,53.917958333333324
123,2013-07-22,35.71533333333333,,35.71533333333333
123,2013-07-23,42.864583333333336,,42.864583333333336
123,2013-07-24,53.10708333333333,,53.10708333333333
123,2013-07-25,15.249999999999998,,15.249999999999998
123,2013-07-26,56.11341666666666,,56.11341666666666
123,2013-07-27,59.66291666666667,,59.66291666666667
123,2013-07-28,30.629875000000002,,30.629875000000002
123,2013-07-29,60.220375,,60.220375
123,2013-07-30,54.294624999999996,,54.294624999999996
123,2013-07-31,57.92416666666666,,57.92416666666666
123,2013-08-01,12.937791666666667,,12.937791666666667
123,2013-08-02,61.022458333333326,,61.022458333333326
123,2013-08-03,31.326999999999998,,31.326999999999998
123,2013-08-04,62.83087500000002,,62.83087500000002
123,2013-08-05,68.78091666666667,,68.78091666666667
123,2013-08-06,59.90300000000001,,59.90300000000001
123,2013-08-07,27.256375000000002,,27.256375000000002
123,2013-08-08,22.295416666666668,,22.295416666666668
123,2013-08-09,20.38325,,20.38325
123,2013-08-10,55.62287499999999,,55.62287499999999
123,2013-08-11,56.262041666666654,,56.262041666666654
123,2013-08-12,48.394208333333346,,48.394208333333346
123,2013-08-13,30.666,,30.666
123,2013-08-14,63.40983333333333,,63.40983333333333
123,2013-08-15,64.571625,,64.571625
123,2013-08-16,54.658208333333334,,54.658208333333334
123,2013-08-17,56.9505,,56.9505
123,2013-08-18,27.787416666666672,,27.787416666666672
123,2013-08-19,39.50066666666666,,39.50066666666666
123,2013-08-20,58.35416666666666,,58.35416666666666
123,2013-08-21,55.125333333333344,,55.125333333333344
123,2013-08-22,18.75945833333333,,18.75945833333333
123,2013-08-23,50.723291666666675,,50.723291666666675
123,2013-08-24,64.14258333333335,,64.14258333333335
123,2013-08-25,60.824541666666676,,60.824541666666676
123,2013-08-26,22.922208333333334,,22.922208333333334
123,2013-08-27,47.10220833333333,,47.10220833333333
123,2013-08-28,35.378249999999994,,35.378249999999994
123,2013-08-29,25.855791666666672,,25.855791666666672
123,2013-08-30,44.528625,,44.528625
123,2013-08-31,29.565083333333337,,29.565083333333337
123,2013-09-01,26.198541666666667,,26.198541666666667
123,2013-09-02,18.987291666666668,,18.987291666666668
123,2013-09-03,36.86033333333333,,36.86033333333333
123,2013-09-04,59.443374999999996,,59.443374999999996
123,2013-09-05,44.48375000000001,,44.48375000000001
123,2013-09-06,59.69891666666667,,59.69891666666667
123,2013-09-07,53.79554166666668,,53.79554166666668
123,2013-09-08,49.719750000000005,,49.719750000000005
123,2013-09-09,50.81575,,50.81575
123,2013-09-10,23.815416666666668,,23.815416666666668
123,2013-09-11,43.29295833333333,,43.29295833333333
123,2013-09-12,29.219083333333334,,29.219083333333334
123,2013-09-13,30.80179166666667,,30.80179166666667
123,2013-09-14,40.646791666666665,,40.646791666666665
123,2013-09-15,51.86766666666667,,51.86766666666667
123,2013-09-16,29.31375,,29.31375
123,2013-09-17,58.015416666666674,,58.015416666666674
123,2013-09-18,55.53041666666667,,55.53041666666667
123,2013-09-19,53.91791666666666,,53.91791666666666
123,2013-09-20,51.565000000000005,,51.565000000000005
123,2013-09-21,32.51291666666667,,32.51291666666667
123,2013-09-22,43.26166666666666,,43.26166666666666
123,2013-09-23,55.14541666666668,,55.14541666666668
123,2013-09-24,53.092916666666675,,53.092916666666675
123,2013-09-25,48.52541666666667,,48.52541666666667
123,2013-09-26,34.06249999999999,,34.06249999999999
123,2013-09-27,28.83875,,28.83875
123,2013-09-28,42.35375,,42.35375
123,2013-09-29,46.26416666666666,,46.26416666666666
123,2013-09-30,49.23624999999999,,49.23624999999999
123,2013-10-01,45.54916666666666,,45.54916666666666
123,2013-10-02,45.16916666666666,,45.16916666666666
123,2013-10-03,37.495416666666664,,37.495416666666664
123,2013-10-04,27.863749999999996,,27.863749999999996
123,2013-10-05,29.27875,,29.27875
123,2013-10-06,8.902083333333332,,8.902083333333332
123,2013-10-07,14.365833333333333,,14.365833333333333
123,2013-10-08,42.72875,,42.72875
123,2013-10-09,30.78583333333334,,30.78583333333334
123,2013-10-10,13.864999999999997,,13.864999999999997
123,2013-10-11,15.43625,,15.43625
123,2013-10-12,37.79625,,37.79625
123,2013-10-13,39.55583333333333,,39.55583333333333
123,2013-10-14,37.12375,,37.12375
123,2013-10-15,40.227916666666665,,40.227916666666665
123,2013-10-16,15.981250000000003,,15.981250000000003
123,2013-10-17,31.20375,,31.20375
123,2013-10-18,40.08083333333334,,40.08083333333334
123,2013-10-19,23.626666666666665,,23.626666666666665
123,2013-10-20,40.0175,,40.0175
123,2013-10-21,38.73499999999999,,38.73499999999999
123,2013-10-22,17.386666666666667,,17.386666666666667
123,2013-10-23,19.185833333333335,,19.185833333333335
123,2013-10-24,38.23875,,38.23875
123,2013-10-25,28.55333333333333,,28.55333333333333
123,2013-10-26,37.36083333333333,,37.36083333333333
123,2013-10-27,35.080000000000005,,35.080000000000005
123,2013-10-28,36.30166666666667,,36.30166666666667
123,2013-10-29,20.664166666666663,,20.664166666666663
123,2013-10-30,10.722083333333336,,10.722083333333336
123,2013-10-31,6.787916666666665,,6.787916666666665
123,2013-11-01,14.898333333333333,,14.898333333333333
123,2013-11-02,25.59708333333333,,25.59708333333333
123,2013-11-03,25.103749999999994,,25.103749999999994
123,2013-11-04,35.99000000000001,,35.99000000000001
123,2013-11-05,22.34875,,22.34875
123,2013-11-06,17.80666666666666,,17.80666666666666
123,2013-11-07,3.9924999999999997,,3.9924999999999997
123,2013-11-08,26.437499999999996,,26.437499999999996
123,2013-11-09,17.236666666666668,,17.236666666666668
123,2013-11-10,17.465,,17.465
123,2013-11-11,20.239583333333332,,20.239583333333332
123,2013-11-12,10.105000000000002,,10.105000000000002
123,2013-11-13,33.129583333333336,,33.129583333333336
123,2013-11-14,30.62375,,30.62375
123,2013-11-15,22.929999999999996,,22.929999999999996
123,2013-11-16,26.5275,,26.5275
123,2013-11-17,5.850416666666667,,5.850416666666667
123,2013-11-18,27.196250000000003,,27.196250000000003
123,2013-11-19,22.929583333333337,,22.929583333333337
123,2013-11-20,30.4875,,30.4875
123,2013-11-21,23.40291666666666,,23.40291666666666
123,2013-11-22,8.9325,,8.9325
123,2013-11-23,28.448333333333338,,28.448333333333338
123,2013-11-24,28.45125,,28.45125
123,2013-11-25,27.43958333333333,,27.43958333333333
123,2013-11-26,6.613750000000002,,6.613750000000002
123,2013-11-27,2.0658333333333334,,2.0658333333333334
123,2013-11-28,27.104999999999993,,27.104999999999993
123,2013-11-29,20.497083333333332,,20.497083333333332
123,2013-11-30,23.970833333333335,,23.970833333333335
123,2013-12-01,20.41125,,20.41125
123,2013-12-02,8.550833333333335,,8.550833333333335
123,2013-12-03,17.722916666666666,,17.722916666666666
123,2013-12-04,19.7,,19.7
123,2013-12-05,2.9254166666666666,,2.9254166666666666
123,2013-12-06,3.127083333333333,,3.127083333333333
123,2013-12-07,5.189166666666666,,5.189166666666666
123,2013-12-08,6.165416666666666,,6.165416666666666
123,2013-12-09,4.340000000000001,,4.340000000000001
123,2013-12-10,0.3841666666666666,,0.3841666666666666
123,2013-12-11,12.087916666666667,,12.087916666666667
123,2013-12-12,23.794583333333335,,23.794583333333335
123,2013-12-13,20.87833333333333,,20.87833333333333
123,2013-12-14,0.21999999999999997,,0.21999999999999997
123,2013-12-15,0.02625,,0.02625
123,2013-12-16,0.7399999999999999,,0.7399999999999999
123,2013-12-17,0.0,,0.0
123,2013-12-18,0.056666666666666664,,0.056666666666666664
123,2013-12-19,0.2995833333333333,,0.2995833333333333
123,2013-12-20,3.1337499999999996,,3.1337499999999996
123,2013-12-21,16.95208333333333,,16.95208333333333
123,2013-12-22,5.100833333333333,,5.100833333333333
123,2013-12-23,1.3599999999999997,,1.3599999999999997
123,2013-12-24,19.223333333333333,,19.223333333333333
123,2013-12-25,21.9175,,21.9175
123,2013-12-26,9.868333333333334,,9.868333333333334
123,2013-12-27,17.65625,,17.65625
123,2013-12-28,18.291666666666668,,18.291666666666668
123,2013-12-29,2.0504166666666666,,2.0504166666666666
123,2013-12-30,8.257083333333334,,8.257083333333334
123,2013-12-31,15.862083333333336,,15.862083333333336
123,2014-01-01,15.893333333333333,,15.893333333333333
123,2014-01-02,0.24249999999999997,,0.24249999999999997
123,2014-01-03,0.7591666666666667,,0.7591666666666667
123,2014-01-04,1.4604166666666665,,1.4604166666666665
123,2014-01-05,0.36333333333333334,,0.36333333333333334
123,2014-01-06,4.04125,,4.04125
123,2014-01-07,27.406250000000004,,27.406250000000004
123,2014-01-08,25.794166666666666,,25.794166666666666
123,2014-01-09,25.8575,,25.8575
123,2014-01-10,1.4399999999999997,,1.4399999999999997
123,2014-01-11,2.0208333333333335,,2.0208333333333335
123,2014-01-12,7.763333333333333,,7.763333333333333
123,2014-01-13,16.041666666666668,,16.041666666666668
123,2014-01-14,1.8487500000000001,,1.8487500000000001
123,2014-01-15,14.877499999999998,,14.877499999999998
123,2014-01-16,7.243750000000001,,7.243750000000001
123,2014-01-17,24.572916666666668,,24.572916666666668
123,2014-01-18,0.055833333333333325,,0.055833333333333325
123,2014-01-19,2.299166666666667,,2.299166666666667
123,2014-01-20,0.8249999999999998,,0.8249999999999998
123,2014-01-21,0.8870833333333333,,0.8870833333333333
123,2014-01-22,4.5183333333333335,,4.5183333333333335
123,2014-01-23,9.095,,9.095
123,2014-01-24,15.057083333333333,,15.057083333333333
123,2014-01-25,4.082083333333334,,4.082083333333334
123,2014-01-26,6.507083333333334,,6.507083333333334
123,2014-01-27,5.0754166666666665,,5.0754166666666665
123,2014-01-28,18.830416666666668,,18.830416666666668
123,2014-01-29,14.710416666666665,,14.710416666666665
123,2014-01-30,26.519583333333333,,26.519583333333333
123,2014-01-31,16.318749999999998,,16.318749999999998
123,2014-02-01,22.80666666666666,,22.80666666666666
123,2014-02-02,14.629166666666665,,14.629166666666665
123,2014-02-03,0.0,,0.0
123,2014-02-04,0.085,,0.085
123,2014-02-05,0.0,,0.0
123,2014-02-06,0.0,,0.0
123,2014-02-07,0.0,,0.0
123,2014-02-08,0.0,,0.0
123,2014-02-09,0.0,,0.0
123,2014-02-10,0.0,,0.0
123,2014-02-11,0.0,,0.0
123,2014-02-12,0.0,,0.0
123,2014-02-13,0.0,,0.0
123,2014-02-14,0.0,,0.0
123,2014-02-15,0.0,,0.0
123,2014-02-16,0.0,,0.0
123,2014-02-17,0.0,,0.0
123,2014-02-18,0.0,,0.0
123,2014-02-19,0.0,,0.0
123,2014-02-20,0.0,,0.0
123,2014-02-21,0.0,,0.0
123,2014-02-22,0.0016666666666666668,,0.0016666666666666668
123,2014-02-23,0.3445833333333333,,0.3445833333333333
123,2014-02-24,3.298333333333334,,3.298333333333334
123,2014-02-25,3.16375,,3.16375
123,2014-02-26,5.040416666666666,,5.040416666666666
123,2014-02-27,6.253333333333334,,6.253333333333334
123,2014-02-28,11.92,,11.92
123,2014-03-01,10.956666666666665,,10.956666666666665
123,2014-03-02,4.19125,,4.19125
123,2014-03-03,6.406249999999999,,6.406249999999999
123,2014-03-04,16.053749999999997,,16.053749999999997
123,2014-03-05,11.16625,,11.16625
123,2014-03-06,24.285833333333333,,24.285833333333333
123,2014-03-07,12.581249999999999,,12.581249999999999
123,2014-03-08,29.829583333333336,,29.829583333333336
123,2014-03-09,47.27708333333334,,47.27708333333334
123,2014-03-10,25.379583333333333,,25.379583333333333
123,2014-03-11,46.93208333333334,,46.93208333333334
123,2014-03-12,13.933333333333335,,13.933333333333335
123,2014-03-13,52.47291666666666,,52.47291666666666
123,2014-03-14,37.998333333333335,,37.998333333333335
123,2014-03-15,38.56041666666666,,38.56041666666666
123,2014-03-16,47.85583333333333,,47.85583333333333
123,2014-03-17,34.30583333333333,,34.30583333333333
123,2014-03-18,58.65083333333333,,58.65083333333333
123,2014-03-19,22.21875,,22.21875
123,2014-03-20,38.38166666666667,,38.38166666666667
123,2014-03-21,59.98333333333333,,59.98333333333333
123,2014-03-22,43.73000000000001,,43.73000000000001
123,2014-03-23,24.592916666666667,,24.592916666666667
123,2014-03-24,56.39333333333332,,56.39333333333332
123,2014-03-25,42.54291666666666,,42.54291666666666
123,2014-03-26,57.72583333333335,,57.72583333333335
123,2014-03-27,56.21,,56.21
123,2014-03-28,10.737500000000002,,10.737500000000002
123,2014-03-29,11.697500000000003,,11.697500000000003
123,2014-03-30,15.261249999999999,,15.261249999999999
123,2014-03-31,46.155416666666675,,46.155416666666675
123,2014-04-01,53.48041666666668,,53.48041666666668
123,2014-04-02,26.288333333333338,,26.288333333333338
123,2014-04-03,57.455833333333324,,57.455833333333324
123,2014-04-04,9.65375,,9.65375
123,2014-04-05,41.428333333333335,,41.428333333333335
123,2014-04-06,64.06791666666668,,64.06791666666668
123,2014-04-07,21.677083333333332,,21.677083333333332
123,2014-04-08,31.379999999999995,,31.379999999999995
123,2014-04-09,58.815416666666664,,58.815416666666664
123,2014-04-10,64.05916666666666,,64.05916666666666
123,2014-04-11,27.098750000000006,,27.098750000000006
123,2014-04-12,61.34833333333333,,61.34833333333333
123,2014-04-13,47.958333333333336,,47.958333333333336
123,2014-04-14,44.127500000000005,,44.127500000000005
123,2014-04-15,7.300833333333333,,7.300833333333333
123,2014-04-16,67.24666666666666,,67.24666666666666
123,2014-04-17,67.04333333333332,,67.04333333333332
123,2014-04-18,46.34291666666666,,46.34291666666666
123,2014-04-19,65.63541666666667,,65.63541666666667
123,2014-04-20,65.04708333333335,,65.04708333333335
123,2014-04-21,65.13958333333333,,65.13958333333333
123,2014-04-22,39.275416666666665,,39.275416666666665
123,2014-04-23,37.255833333333335,,37.255833333333335
123,2014-04-24,68.38666666666667,,68.38666666666667
123,2014-04-25,61.64125000000001,,61.64125000000001
123,2014-04-26,46.030833333333334,,46.030833333333334
123,2014-04-27,49.079999999999984,,49.079999999999984
123,2014-04-28,64.84624999999998,,64.84624999999998
123,2014-04-29,20.907500000000002,,20.907500000000002
123,2014-04-30,10.098749999999999,,10.098749999999999
123,2014-05-01,42.19541666666667,,42.19541666666667
123,2014-05-02,42.01499999999999,,42.01499999999999
123,2014-05-03,43.96291666666667,,43.96291666666667
123,2014-05-04,45.79916666666667,,45.79916666666667
123,2014-05-05,67.84916666666668,,67.84916666666668
123,2014-05-06,47.18041666666667,,47.18041666666667
123,2014-05-07,57.67625000000001,,57.67625000000001
123,2014-05-08,8.826666666666666,,8.826666666666666
123,2014-05-09,13.792500000000002,,13.792500000000002
123,2014-05-10,39.78000000000001,,39.78000000000001
123,2014-05-11,66.61583333333333,,66.61583333333333
123,2014-05-12,49.37916666666666,,49.37916666666666
123,2014-05-13,55.5425,,55.5425
123,2014-05-14,51.30583333333334,,51.30583333333334
123,2014-05-15,12.666666666666666,,12.666666666666666
123,2014-05-16,16.23125,,16.23125
123,2014-05-17,58.392083333333325,,58.392083333333325
123,2014-05-18,50.397916666666674,,50.397916666666674
123,2014-05-19,55.50416666666667,,55.50416666666667
123,2014-05-20,65.18625,,65.18625
123,2014-05-21,46.42791666666667,,46.42791666666667
123,2014-05-22,15.9225,,15.9225
123,2014-05-23,34.974583333333335,,34.974583333333335
123,2014-05-24,32.647083333333335,,32.647083333333335
123,2014-05-25,66.29083333333334,,66.29083333333334
123,2014-05-26,59.46458333333334,,59.46458333333334
123,2014-05-27,44.279583333333335,,44.279583333333335
123,2014-05-28,13.58,,13.58
123,2014-05-29,68.98416666666667,,68.98416666666667
123,2014-05-30,60.67166666666666,,60.67166666666666
123,2014-05-31,53.6875,,53.6875
123,2014-06-01,67.46708333333333,,67.46708333333333
123,2014-06-02,65.50708333333334,,65.50708333333334
123,2014-06-03,54.68166666666668,,54.68166666666668
123,2014-06-04,52.653749999999995,,52.653749999999995
123,2014-06-05,34.666666666666664,,34.666666666666664
123,2014-06-06,59.143333333333324,,59.143333333333324
123,2014-06-07,66.27083333333334,,66.27083333333334
123,2014-06-08,58.865833333333335,,58.865833333333335
123,2014-06-09,10.553333333333333,,10.553333333333333
123,2014-06-10,28.78625,,28.78625
123,2014-06-11,13.214999999999998,,13.214999999999998
123,2014-06-12,13.724166666666669,,13.724166666666669
123,2014-06-13,31.90625,,31.90625
123,2014-06-14,54.72916666666668,,54.72916666666668
123,2014-06-15,64.42083333333333,,64.42083333333333
123,2014-06-16,62.893333333333324,,62.893333333333324
123,2014-06-17,53.957083333333344,,53.957083333333344
123,2014-06-18,61.72375,,61.72375
123,2014-06-19,29.132499999999997,,29.132499999999997
123,2014-06-20,61.326666666666654,,61.326666666666654
123,2014-06-21,60.60708333333335,,60.60708333333335
123,2014-06-22,60.48541666666668,,60.48541666666668
123,2014-06-23,56.12083333333333,,56.12083333333333
123,2014-06-24,44.91166666666667,,44.91166666666667
123,2014-06-25,50.38916666666668,,50.38916666666668
123,2014-06-26,46.57041666666667,,46.57041666666667
123,2014-06-27,55.08083333333334,,55.08083333333334
123,2014-06-28,60.64041666666666,,60.64041666666666
123,2014-06-29,58.52375,,58.52375
123,2014-06-30,49.17583333333334,,49.17583333333334
123,2014-07-01,50.552083333333336,,50.552083333333336
123,2014-07-02,47.995833333333316,,47.995833333333316
123,2014-07-03,45.196666666666665,,45.196666666666665
123,2014-07-04,21.24083333333333,,21.24083333333333
123,2014-07-05,64.64583333333333,,64.64583333333333
123,2014-07-06,63.00625,,63.00625
123,2014-07-07,55.134166666666665,,55.134166666666665
123,2014-07-08,51.65333333333334,,51.65333333333334
123,2014-07-09,49.49625,,49.49625
123,2014-07-10,53.71625,,53.71625
123,2014-07-11,61.44166666666667,,61.44166666666667
123,2014-07-12,55.678333333333335,,55.678333333333335
123,2014-07-13,40.35,,40.35
123,2014-07-14,25.244166666666676,,25.244166666666676
123,2014-07-15,25.475000000000005,,25.475000000000005
123,2014-07-16,41.220000000000006,,41.220000000000006
123,2014-07-17,43.22291666666666,,43.22291666666666
123,2014-07-18,57.57791666666668,,57.57791666666668
123,2014-07-19,34.234583333333326,,34.234583333333326
123,2014-07-20,50.49125,,50.49125
123,2014-07-21,57.803333333333335,,57.803333333333335
123,2014-07-22,52.31125,,52.31125
123,2014-07-23,51.79958333333334,,51.79958333333334
123,2014-07-24,50.510416666666664,,50.510416666666664
123,2014-07-25,58.78250000000002,,58.78250000000002
123,2014-07-26,29.39583333333333,,29.39583333333333
123,2014-07-27,34.602916666666665,,34.602916666666665
123,2014-07-28,42.759166666666665,,42.759166666666665
123,2014-07-29,50.604166666666664,,50.604166666666664
123,2014-07-30,55.13541666666665,,55.13541666666665
123,2014-07-31,49.0675,,49.0675
123,2014-08-01,34.61208333333333,,34.61208333333333
123,2014-08-02,26.598749999999995,,26.598749999999995
123,2014-08-03,31.587500000000002,,31.587500000000002
123,2014-08-04,52.16791666666668,,52.16791666666668
123,2014-08-05,55.785000000000004,,55.785000000000004
123,2014-08-06,52.417916666666656,,52.417916666666656
123,2014-08-07,55.03916666666667,,55.03916666666667
123,2014-08-08,57.04458333333333,,57.04458333333333
123,2014-08-09,58.68333333333334,,58.68333333333334
123,2014-08-10,56.5925,,56.5925
123,2014-08-11,49.96375,,49.96375
123,2014-08-12,22.47916666666666,,22.47916666666666
123,2014-08-13,31.765416666666663,,31.765416666666663
123,2014-08-14,45.23708333333334,,45.23708333333334
123,2014-08-15,37.377916666666664,,37.377916666666664
123,2014-08-16,48.155,,48.155
123,2014-08-17,42.49999999999999,,42.49999999999999
123,2014-08-18,53.98208333333332,,53.98208333333332
123,2014-08-19,57.705833333333324,,57.705833333333324
123,2014-08-20,49.191250000000004,,49.191250000000004
123,2014-08-21,32.55833333333333,,32.55833333333333
123,2014-08-22,21.959583333333327,,21.959583333333327
123,2014-08-23,23.09375,,23.09375
123,2014-08-24,42.73291666666666,,42.73291666666666
123,2014-08-25,54.78541666666667,,54.78541666666667
123,2014-08-26,51.965833333333336,,51.965833333333336
123,2014-08-27,47.93375,,47.93375
123,2014-08-28,55.36958333333333,,55.36958333333333
123,2014-08-29,53.761666666666656,,53.761666666666656
123,2014-08-30,42.19166666666667,,42.19166666666667
123,2014-08-31,22.697916666666668,,22.697916666666668
123,2014-09-01,35.01166666666666,,35.01166666666666
123,2014-09-02,39.48541666666667,,39.48541666666667
123,2014-09-03,47.341249999999995,,47.341249999999995
123,2014-09-04,48.34125,,48.34125
123,2014-09-05,39.44166666666666,,39.44166666666666
123,2014-09-06,33.94958333333333,,33.94958333333333
123,2014-09-07,51.10041666666666,,51.10041666666666
123,2014-09-08,42.14958333333333,,42.14958333333333
123,2014-09-09,25.1575,,25.1575
123,2014-09-10,49.70083333333333,,49.70083333333333
123,2014-09-11,15.755416666666667,,15.755416666666667
123,2014-09-12,53.26666666666667,,53.26666666666667
123,2014-09-13,14.057500000000003,,14.057500000000003
123,2014-09-14,51.39458333333332,,51.39458333333332
123,2014-09-15,51.30083333333334,,51.30083333333334
123,2014-09-16,25.708333333333332,,25.708333333333332
123,2014-09-17,49.979166666666664,,49.979166666666664
123,2014-09-18,47.395833333333336,,47.395833333333336
123,2014-09-19,45.90625,,45.90625
123,2014-09-20,39.60666666666667,,39.60666666666667
123,2014-09-21,14.357916666666663,,14.357916666666663
123,2014-09-22,44.199166666666656,,44.199166666666656
123,2014-09-23,48.20041666666666,,48.20041666666666
123,2014-09-24,36.94916666666667,,36.94916666666667
123,2014-09-25,14.804583333333333,,14.804583333333333
123,2014-09-26,46.862083333333324,,46.862083333333324
123,2014-09-27,44.93,,44.93
123,2014-09-28,40.433749999999996,,40.433749999999996
123,2014-09-29,19.929583333333333,,19.929583333333333
123,2014-09-30,21.71208333333333,,21.71208333333333
123,2014-10-01,6.320416666666667,,6.320416666666667
123,2014-10-02,21.28375,,21.28375
123,2014-10-03,43.442499999999995,,43.442499999999995
123,2014-10-04,7.759166666666666,,7.759166666666666
123,2014-10-05,45.19291666666667,,45.19291666666667